OBJECT K, 44395

Orbit data source: Space-Track

You're viewing an Uncataloged Satellite

Recently launched and/or uncataloged satellites may have evolving metadata. Metadata may include but not limited to: Owner, Maufacturer, Bus, Motor, and Mission.

OBJECT K, 44395 is a satellite in SSO that was launched on Fri, 05 Jul 2019 UTC via a SOYUZ-2-1B launch vehicle from the Vostochny Cosmodrome (VOSTO). Unknown objects in Earth's orbit typically refer to objects detected orbiting the Earth but have not yet been identified or cataloged. These objects could be anything from previously untracked satellites, spent rocket stages, debris from satellite collisions, or even natural meteoroids temporarily captured by Earth's gravity.

Not visible in the next 10 days
Identifier
44395, 2019-038K
Orbit
SSO
Last TLE update
19 hours ago
Origin
Flag of TBDUTE (TBD)
Manufacturer
UTE/YUZGU
Mission
Non-operational Amateur Technology
Bus & Motor
CUBESAT 3U, Unknown motor
Mass
4 kg wet, 4 kg dry
Launch date (UTC)
2019-07-05 (6 years ago)
Launch vehicle
SOYUZ-2-1B
Launch site
Vostochny Cosmodrome (VOSTO)
Object type
Unknown
Shape & HBR
Box + 4 Ant, Unknown HBR
Radar Cross Section
0.031 m², Medium (>0.1 m² and < 1m²)

Expand to show TLE details & history

TLE from 19 hours ago
0 OBJECT K
1 44395U 19038K   25128.60031475  .00268942  00000-0  96280-3 0  9999
2 44395  97.6882 152.0582 0001670  71.9876 288.1577 15.88144274324553
Epoch: 2025-05-08T14:24Z
Definitive object data (Epoch: 2025-05-08T14:24:27.194Z)
Latitude
-0.00001°
Longitude
69.27641°
Altitude
310.312 km
Speed
7.722 km/s
True Right ascension
10h 08m 13s
True Declination
0° 00' 00"
Sunlit
Object was in daylight at TLE epoch
Visualization TLE readout
Latitude
20.73279°
Longitude
-106.92635°
Altitude
309.154 km
Speed
7.724 km/s
Apparent Right ascension
01h 17m 01s
Apparent Declination
-13° 59' 24"
Sunlit
Object is in daylight
Visualization observer readout
Local Sidereal Time
17:22:26
Azimuth
82.437° E
Elevation
-30.791°
Doppler factor
1
Orbital elements
Apogee altitude
305.49 km
Perigee altitude
303.258 km
Semi-major axis
6,682.511 km
Eccentricity
0.000167
Inclination
97.6882°
RAAN
152.0582°
Arg. of periapsis
71.9876°
True anomaly
288.13951°
Mean anomaly
288.1577°
Eccentric anomaly
288.14861°
Mean motion
3.97314 °/min
BSTAR
0.0009628
Orbital period
90.61 mins
Loading maneuver chart data...
Loading SW <> Apogee altitude chart data...

OBJECT K Visibility forecast

Observer location: undefined°, undefined°

OBJECT K is not visible in the next 10 days
Span
Click to sort rows by Start time (UTC) header in descending order
Start Az.
Max El. time (UTC)
Max El. Az.
Max El.
End time (UTC)
End Az.
|